Wind_Speed
13 11 9 9 11 13 13 18 21 22 21 17 18 22 28 32 29 14 12 12 24 33 45 35 23 32 19 27 18 15 13 12 6 8 10 9 5 12 14 13 13 10 13 17 21 21 27 32 34
8 14 14 14 15 18 17 20 24 23 20 22 22 25 28 32 27 13 6 8 18 31 43 42 25 33 19 27 23 14 9 10 6 12 7 0 5 10 11 12 9 11 13 16 19 22 26 27 28
9 10 13 15 15 17 18 20 23 24 22 22 23 26 28 30 25 17 5 6 13 24 32 55 37 25 33 27 26 21 12 10 12 7 3 3 5 11 9 10 8 14 16 17 20 24 26 28 32
11 12 12 15 15 17 20 22 22 21 21 22 23 25 27 29 29 18 7 2 13 12 24 31 48 33 22 15 28 32 19 17 13 7 6 4 8 11 8 7 10 17 20 23 26 29 31 35 33
14 15 17 18 19 19 20 21 22 21 21 22 22 24 26 29 30 18 8 1 11 16 19 26 43 35 16 13 19 28 19 16 12 11 9 5 5 9 7 6 12 21 26 29 33 34 38 40 38
20 20 21 22 22 24 21 21 21 21 22 22 20 23 25 27 29 20 10 1 10 18 19 25 47 40 38 14 22 23 17 19 12 17 11 7 5 6 4 7 16 23 28 30 32 33 35 39 41
27 27 28 28 29 27 24 23 21 20 20 18 16 19 22 25 28 19 11 2 11 18 24 22 40 45 31 27 22 22 23 18 18 19 13 8 6 5 4 8 19 21 21 26 33 33 30 35 39
31 30 30 31 30 28 26 24 21 19 18 12 15 14 19 21 26 18 13 4 12 19 25 21 29 29 44 26 24 25 26 17 22 16 12 10 6 5 5 10 18 20 19 17 29 30 30 33 38
35 33 32 31 30 29 27 23 21 20 17 13 15 11 16 17 24 18 13 8 13 16 23 28 26 26 36 35 33 30 25 18 20 16 10 11 7 5 6 12 15 20 18 18 25 28 29 36 39
36 34 33 32 32 30 27 24 22 19 16 13 12 8 13 15 22 16 12 8 14 13 18 21 25 33 39 36 36 30 23 17 20 18 9 9 5 5 7 13 16 17 15 19 23 26 26 35 37
36 35 35 34 33 32 28 24 21 18 15 10 7 6 11 12 18 14 13 8 11 14 16 18 23 43 36 36 34 28 27 24 19 20 12 12 5 5 9 11 17 18 18 21 21 24 24 31 28
32 31 31 31 30 29 27 24 20 16 13 9 9 8 8 9 14 14 12 13 13 12 15 19 26 40 35 33 32 24 22 20 12 18 13 11 11 5 11 9 16 16 14 20 22 22 23 25 26
18 18 16 17 19 20 22 22 20 16 14 11 9 6 5 4 11 13 5 11 15 13 13 20 25 31 35 33 31 22 28 23 27 20 19 12 11 6 10 10 12 17 14 12 18 17 19 19 18
15 13 12 11 10 13 13 17 20 16 18 13 12 8 5 1 8 10 7 4 10 13 12 18 23 28 34 37 23 22 27 34 29 21 22 16 9 8 7 9 9 11 16 9 10 14 15 14 17
19 17 15 13 10 10 9 14 18 21 20 17 15 11 6 4 2 6 8 2 8 12 14 19 22 24 35 37 23 23 23 30 30 22 20 19 9 7 6 5 6 7 11 9 5 5 9 12 13
18 18 17 15 12 9 8 13 16 18 19 21 18 13 9 7 7 3 3 6 11 9 12 15 22 21 32 31 22 26 33 28 24 23 23 19 15 13 7 9 6 6 8 8 6 1 6 6 10
10 12 11 12 13 11 4 14 22 25 23 21 20 17 13 14 9 9 3 2 6 12 13 15 19 26 30 30 21 28 30 33 26 26 24 20 16 14 9 12 7 6 6 6 6 3 0 4 8
7 8 8 8 7 10 9 7 10 22 20 22 23 21 18 18 13 13 8 5 3 5 13 18 22 22 27 35 30 23 23 32 30 26 26 25 21 16 16 10 5 5 5 4 3 3 3 3 4
7 6 5 6 5 5 12 14 15 14 15 18 18 18 24 18 19 17 13 9 5 6 5 15 21 24 25 30 31 30 27 31 28 30 20 23 19 27 22 16 14 9 6 8 4 5 6 5 4
7 8 10 9 8 5 5 13 18 16 15 20 17 15 17 21 22 20 17 13 11 9 7 7 13 22 27 25 26 27 30 30 31 31 31 23 20 24 23 20 21 14 9 9 6 5 7 7 7
13 11 14 12 13 12 7 6 14 22 19 19 20 20 18 17 21 23 23 17 16 13 10 9 7 8 16 28 28 30 30 31 33 31 34 30 26 22 19 16 22 21 16 13 12 7 6 6 6
17 16 20 17 17 16 12 9 8 11 24 22 22 23 21 21 20 23 24 22 20 17 13 12 9 11 10 16 22 21 33 29 30 32 36 35 31 32 26 24 23 25 25 18 17 15 11 6 7
18 20 22 22 22 21 18 14 12 10 9 20 24 23 27 24 24 25 28 26 24 21 18 16 15 14 16 13 12 11 15 27 33 31 32 37 35 36 35 28 28 29 29 27 25 24 19 15 11
27 26 27 27 27 25 23 23 19 16 13 11 17 25 26 28 27 28 28 27 28 23 22 21 19 18 19 17 15 11 7 6 12 23 35 34 35 37 37 37 35 34 33 34 31 28 28 24 19
31 30 30 30 30 30 27 29 22 23 21 17 15 18 27 30 30 30 31 29 30 31 28 27 26 22 21 20 20 16 12 9 8 6 11 27 36 37 37 37 42 41 39 38 38 37 37 36 33
31 28 28 27 28 28 30 31 29 27 28 24 23 19 21 30 34 34 32 32 34 33 30 28 33 28 24 21 24 22 19 16 14 11 8 9 16 24 30 39 39 41 47 45 44 42 44 42 39
33 34 33 33 33 31 33 34 32 28 28 31 30 27 25 24 31 38 40 38 34 34 33 33 34 33 27 23 23 25 25 22 20 17 15 13 10 10 12 15 26 41 44 50 49 48 50 45 44
42 43 43 42 41 39 40 45 40 35 32 32 34 33 33 30 29 32 38 43 41 39 37 38 35 39 35 27 26 27 29 28 26 23 21 18 17 15 14 15 18 24 33 45 50 53 51 51 49
44 45 46 46 47 47 47 53 45 42 36 34 37 37 38 36 35 33 34 38 45 46 43 40 40 42 40 35 29 32 32 32 31 27 26 26 20 13 11 12 16 13 18 31 39 46 53 54 52
50 51 51 51 49 46 47 55 49 46 44 41 39 40 41 41 40 40 37 36 37 40 46 50 45 40 36 38 37 35 35 34 36 33 32 30 26 22 22 17 13 14 14 16 21 32 38 47 53
Wind_Direction
211 212 230 245 268 292 300 312 330 342 347 344 329 336 337 345 348 330 276 237 205 200 194 193 184 196 208 200 210 227 241 247 256 306 330 340 356 0 2 7 16 39 40 31 40 50 43 38 40
245 253 272 277 284 295 298 316 325 334 341 332 330 338 341 352 356 345 300 226 212 199 199 185 179 211 209 221 217 210 232 230 254 290 300 146 18 14 15 10 35 49 40 34 47 52 51 49 49
262 277 284 286 291 296 303 318 323 329 332 328 335 340 344 358 4 5 338 210 192 198 199 201 189 205 216 233 208 214 227 211 279 265 232 125 50 18 21 16 70 58 48 48 54 61 56 47 42
273 283 286 295 303 307 314 319 318 323 333 328 336 339 344 0 8 5 5 188 190 181 195 201 204 202 204 226 220 223 234 248 235 232 183 111 45 24 30 22 75 64 61 67 69 65 59 51 48
275 282 291 294 297 301 306 310 316 319 322 326 336 339 346 0 7 11 11 215 187 183 182 194 188 188 175 205 196 214 209 219 212 168 157 122 56 40 37 33 82 73 78 77 72 68 61 56 52
272 279 284 285 291 295 299 300 305 313 322 328 333 345 347 360 2 6 7 232 191 179 178 185 181 183 197 180 173 186 192 191 184 172 163 131 63 59 59 59 98 87 79 76 72 64 65 58 52
278 282 282 284 287 292 298 297 299 309 316 324 329 346 349 360 358 6 15 328 185 185 176 176 191 197 194 187 175 189 177 185 173 171 163 121 67 57 72 81 107 94 95 79 67 61 61 63 56
277 279 282 284 285 287 289 292 295 298 306 314 330 341 350 358 355 7 13 74 166 168 178 174 185 194 211 190 175 193 175 185 172 171 165 113 84 65 72 106 116 107 106 82 67 61 65 59 59
279 280 281 281 280 280 283 284 286 292 301 296 322 340 349 358 358 9 27 83 146 165 172 187 188 192 182 183 179 178 174 175 178 173 162 138 106 86 84 122 119 118 106 89 73 69 66 63 61
276 277 277 277 277 279 280 280 283 286 293 292 310 347 351 1 4 13 37 76 139 143 166 174 188 178 166 177 175 170 167 154 191 184 163 154 116 119 119 124 118 126 105 91 80 73 68 68 62
277 276 275 275 275 276 275 276 278 280 283 282 286 339 349 4 10 25 53 72 125 145 159 165 173 165 168 173 175 171 164 163 191 194 188 181 130 158 135 134 129 134 101 89 79 77 77 77 59
282 281 279 276 273 270 269 266 265 267 261 247 258 287 337 3 19 29 67 72 99 135 152 160 159 166 162 162 167 178 177 178 172 202 182 179 166 166 136 130 135 147 140 93 81 77 86 77 64
281 283 285 289 285 276 264 253 247 246 229 223 237 272 293 3 31 26 92 83 85 101 135 158 160 170 170 167 156 167 174 169 189 195 184 168 165 160 159 127 147 158 164 120 83 79 81 71 56
278 281 284 281 288 297 273 244 234 222 205 224 219 243 255 331 57 36 51 127 109 102 118 152 163 165 165 163 149 172 188 184 201 191 187 186 195 151 133 145 142 167 165 157 97 68 72 75 62
281 280 280 283 285 300 284 234 218 213 225 215 215 215 243 234 192 68 43 113 146 123 119 149 163 162 164 171 165 190 180 193 203 194 195 187 199 202 129 134 166 160 166 162 158 54 52 90 70
284 281 273 270 278 287 258 212 216 218 211 212 210 202 220 223 217 204 62 64 192 181 148 139 154 163 168 172 203 194 199 196 206 196 204 201 209 220 151 140 143 174 181 172 176 162 40 82 94
288 292 292 286 261 263 264 220 224 213 211 208 210 213 237 211 227 232 166 109 90 199 194 175 161 173 178 178 177 190 195 199 198 205 208 203 205 200 164 145 124 153 185 184 178 191 112 90 123
307 306 309 309 283 240 224 207 226 234 239 233 228 230 237 215 222 227 200 173 137 101 193 204 187 182 187 197 210 204 204 205 213 211 214 216 216 212 197 202 198 160 173 155 196 204 179 137 146
295 314 325 335 296 240 234 231 233 219 220 224 235 235 237 228 219 226 224 195 151 136 126 195 198 199 193 199 207 215 216 214 221 210 212 224 231 226 217 232 242 225 185 183 157 203 194 191 189
292 295 295 300 299 283 234 237 232 230 222 218 229 240 225 231 220 219 221 204 181 169 158 155 187 208 207 208 215 220 223 221 222 218 222 218 223 218 224 232 228 236 229 213 194 179 205 199 209
275 276 278 291 296 296 298 255 234 230 233 221 225 234 230 231 228 218 222 221 205 191 192 174 181 172 209 220 222 230 227 226 227 225 225 231 223 224 228 238 234 229 230 234 209 191 172 195 202
268 265 272 278 280 284 294 298 288 234 228 231 220 230 226 223 219 218 222 223 216 200 202 204 192 179 175 205 221 231 224 224 228 232 230 232 229 224 229 235 239 241 240 239 229 212 193 200 209
262 264 266 268 269 275 277 280 276 271 245 227 233 229 233 232 225 220 225 223 219 218 214 210 209 195 181 178 182 197 218 232 237 234 233 236 234 231 233 235 235 237 238 241 234 222 212 213 226
264 263 263 263 266 266 268 271 268 269 268 249 230 233 240 233 228 222 224 229 222 225 231 225 217 217 203 194 191 197 216 235 236 242 235 231 233 236 238 237 240 239 240 243 243 236 226 234 244
266 265 262 260 262 266 263 265 262 263 261 258 249 233 233 239 235 226 221 224 233 235 237 241 230 221 221 216 216 221 221 225 196 211 221 229 232 231 235 240 238 239 240 242 244 245 238 245 249
259 260 259 262 268 271 270 267 265 259 260 256 256 256 242 231 237 237 235 229 229 234 238 237 231 226 228 236 232 225 231 239 238 242 218 202 207 226 239 243 242 241 240 238 242 244 251 249 247
256 258 259 262 265 267 271 269 266 259 259 260 252 251 251 246 235 238 238 234 234 234 235 234 229 228 229 231 236 237 231 234 242 246 237 238 242 259 272 272 251 241 241 238 237 238 240 246 248
262 263 263 262 264 264 265 268 264 264 263 259 257 253 249 244 242 239 239 238 236 235 234 234 232 231 233 235 240 242 236 235 238 244 241 252 254 255 268 289 291 259 249 244 241 241 241 242 243
267 266 265 264 265 264 264 264 265 266 266 266 261 256 251 248 243 242 242 241 242 240 236 238 233 232 239 238 235 238 237 234 238 242 250 252 262 262 298 314 302 294 273 257 250 244 243 240 241
267 266 266 266 265 266 267 264 266 265 263 263 262 259 253 247 244 245 244 243 244 243 243 240 237 235 234 237 241 235 238 243 235 238 245 250 252 263 274 288 279 287 300 294 270 250 246 242 238
Height
10995 10996 10998 10998 10997 10997 10995 10992 10991 10988 10985 10982 10980 10977 10971 10964 10957 10951 10946 10945 10948 10953 10959 10966 10971 10975 10977 10982 10986 10990 10992 10992 10993 10994 10995 10995 10993 10990 10986 10982 10978 10975 10972 10967 10962 10957 10951 10946 10941
10994 10996 10995 10995 10995 10994 10993 10991 10989 10986 10984 10981 10978 10974 10969 10961 10954 10948 10944 10943 10944 10948 10953 10960 10966 10972 10974 10980 10987 10990 10991 10992 10993 10994 10996 10994 10993 10990 10986 10982 10979 10977 10974 10969 10965 10960 10955 10950 10945
10993 10994 10994 10993 10993 10992 10991 10989 10987 10984 10982 10980 10975 10971 10966 10959 10953 10947 10943 10941 10942 10945 10950 10957 10964 10969 10974 10980 10986 10988 10992 10993 10994 10996 10996 10995 10993 10990 10987 10984 10981 10979 10975 10971 10967 10962 10958 10953 10947
10991 10992 10992 10991 10991 10991 10989 10987 10985 10983 10981 10978 10974 10970 10964 10958 10952 10948 10943 10940 10941 10944 10947 10952 10963 10969 10976 10978 10982 10988 10992 10994 10995 10996 10996 10995 10993 10991 10988 10986 10984 10981 10978 10974 10970 10965 10961 10956 10951
10990 10990 10989 10989 10987 10988 10987 10985 10983 10981 10980 10977 10973 10969 10963 10957 10952 10947 10943 10940 10940 10941 10945 10949 10959 10967 10974 10976 10979 10986 10991 10993 10995 10996 10994 10994 10993 10991 10990 10988 10986 10984 10981 10978 10973 10969 10964 10959 10955
10988 10988 10987 10986 10985 10984 10984 10982 10981 10980 10978 10975 10972 10968 10963 10956 10951 10947 10943 10940 10940 10941 10945 10948 10956 10962 10969 10975 10980 10987 10991 10992 10995 10996 10994 10995 10993 10993 10991 10990 10989 10987 10985 10982 10977 10973 10968 10964 10959
10983 10983 10981 10981 10981 10981 10981 10980 10979 10978 10976 10974 10972 10967 10962 10956 10951 10947 10944 10939 10938 10940 10944 10950 10957 10962 10970 10978 10981 10986 10988 10992 10994 10995 10995 10994 10994 10993 10993 10992 10991 10989 10988 10985 10981 10978 10974 10969 10964
10977 10977 10976 10974 10975 10976 10976 10976 10975 10975 10973 10972 10971 10967 10963 10958 10952 10946 10943 10940 10939 10940 10943 10949 10955 10962 10969 10975 10980 10984 10987 10991 10993 10995 10995 10995 10995 10995 10994 10994 10993 10992 10990 10989 10985 10982 10978 10974 10967
10970 10970 10970 10968 10968 10970 10971 10971 10971 10972 10971 10969 10969 10966 10963 10958 10953 10947 10943 10941 10941 10941 10944 10948 10953 10955 10963 10972 10978 10983 10987 10991 10994 10996 10996 10997 10997 10995 10995 10995 10995 10994 10992 10991 10988 10986 10982 10976 10971
10963 10964 10964 10963 10961 10963 10965 10967 10968 10968 10967 10967 10967 10966 10963 10959 10954 10949 10945 10943 10943 10944 10946 10949 10951 10955 10962 10970 10976 10982 10988 10992 10994 10995 10996 10997 10997 10996 10997 10996 10996 10996 10995 10994 10991 10989 10986 10981 10976
10954 10957 10956 10956 10956 10957 10959 10961 10962 10964 10965 10965 10966 10965 10963 10960 10956 10952 10948 10945 10944 10946 10948 10950 10951 10955 10963 10970 10977 10982 10988 10991 10993 10995 10996 10997 10998 10998 10998 10998 10997 10998 10998 10996 10994 10992 10990 10986 10982
10947 10949 10948 10949 10949 10951 10952 10955 10957 10959 10961 10963 10964 10965 10963 10960 10957 10954 10952 10949 10947 10948 10950 10952 10954 10958 10964 10971 10978 10984 10988 10992 10994 10994 10996 10997 10999 10999 10998 10999 10998 10999 10999 10998 10997 10996 10994 10991 10988
10942 10943 10943 10942 10943 10944 10946 10949 10951 10954 10957 10959 10961 10963 10962 10961 10958 10956 10954 10953 10951 10951 10952 10955 10957 10961 10967 10973 10979 10983 10987 10992 10992 10994 10995 10997 10998 11000 11000 10999 11000 10999 11000 11001 11000 10999 10998 10995 10992
10940 10940 10940 10940 10940 10940 10941 10943 10945 10949 10952 10955 10959 10961 10961 10960 10959 10957 10956 10954 10954 10954 10955 10957 10960 10964 10969 10973 10978 10982 10985 10989 10990 10993 10995 10997 10999 11001 11001 11001 11001 11001 11001 11003 11004 11003 11001 10998 10995
10936 10937 10938 10937 10938 10938 10938 10939 10941 10945 10949 10952 10955 10958 10959 10959 10959 10959 10958 10956 10956 10956 10958 10961 10964 10967 10971 10975 10978 10981 10984 10987 10990 10993 10996 10999 11001 11002 11002 11002 11003 11003 11003 11003 11005 11005 11004 11002 11000
10932 10932 10934 10935 10935 10937 10935 10936 10939 10941 10945 10947 10951 10953 10956 10958 10958 10959 10958 10957 10957 10958 10960 10962 10966 10969 10972 10977 10978 10980 10984 10987 10990 10993 10996 10999 11002 11003 11004 11003 11003 11004 11005 11004 11005 11006 11005 11005 11003
10930 10930 10930 10931 10932 10933 10934 10934 10935 10938 10941 10943 10946 10949 10952 10954 10956 10957 10957 10958 10957 10958 10960 10962 10965 10969 10972 10974 10975 10979 10983 10986 10990 10993 10996 10999 11002 11003 11005 11004 11005 11005 11006 11006 11005 11006 11006 11007 11005
10929 10929 10929 10929 10930 10930 10931 10932 10933 10935 10937 10939 10942 10945 10947 10949 10952 10955 10956 10957 10957 10957 10958 10961 10964 10966 10970 10973 10975 10979 10982 10985 10988 10991 10994 10998 11000 11002 11004 11004 11005 11005 11006 11006 11007 11007 11007 11008 11008
10927 10927 10928 10928 10927 10927 10928 10929 10931 10932 10933 10936 10938 10940 10942 10944 10948 10951 10954 10955 10956 10957 10958 10959 10961 10964 10967 10971 10974 10977 10979 10982 10985 10988 10991 10994 10997 11000 11002 11004 11005 11005 11006 11006 11006 11006 11006 11007 11008
10926 10926 10925 10926 10925 10926 10926 10926 10928 10930 10931 10933 10935 10936 10939 10942 10944 10948 10951 10953 10954 10956 10957 10959 10960 10962 10965 10968 10971 10973 10976 10979 10982 10985 10987 10990 10993 10995 10999 11001 11002 11004 11005 11006 11006 11006 11006 11006 11006
10924 10924 10922 10923 10923 10923 10924 10925 10925 10926 10928 10930 10931 10934 10936 10938 10941 10943 10947 10950 10952 10953 10956 10957 10959 10960 10962 10965 10967 10969 10971 10973 10977 10980 10983 10985 10989 10991 10993 10997 10999 11001 11003 11004 11005 11005 11005 11005 11006
10921 10922 10920 10920 10920 10920 10921 10922 10922 10923 10924 10926 10927 10929 10931 10933 10936 10939 10942 10946 10949 10950 10953 10955 10957 10958 10959 10961 10963 10965 10967 10969 10972 10974 10978 10981 10983 10986 10989 10992 10995 10998 10999 11001 11002 11003 11003 11004 11003
10917 10917 10917 10916 10916 10917 10918 10919 10919 10919 10920 10922 10924 10926 10928 10930 10932 10935 10939 10941 10945 10948 10950 10952 10954 10956 10957 10959 10961 10962 10963 10965 10967 10969 10972 10976 10979 10982 10984 10987 10990 10992 10993 10995 10997 10999 10999 11000 11001
10910 10910 10910 10911 10911 10912 10913 10913 10915 10916 10917 10918 10919 10922 10924 10925 10928 10930 10933 10937 10940 10943 10946 10949 10951 10953 10955 10956 10958 10960 10961 10962 10962 10962 10965 10969 10972 10975 10977 10980 10982 10984 10986 10988 10991 10995 10995 10996 10998
10902 10903 10903 10904 10905 10905 10907 10907 10910 10910 10912 10914 10915 10916 10919 10920 10922 10924 10927 10930 10934 10937 10940 10944 10947 10949 10951 10953 10955 10957 10960 10960 10960 10961 10960 10962 10966 10969 10971 10974 10976 10978 10980 10982 10985 10986 10989 10991 10993
10893 10896 10897 10897 10898 10899 10899 10900 10903 10905 10905 10908 10909 10911 10913 10915 10916 10918 10921 10923 10926 10930 10934 10937 10941 10945 10947 10949 10951 10953 10956 10958 10958 10959 10960 10960 10962 10964 10966 10967 10968 10969 10970 10973 10976 10979 10980 10984 10987
10886 10888 10889 10891 10891 10893 10890 10890 10893 10897 10900 10899 10902 10905 10907 10908 10910 10912 10913 10917 10920 10923 10927 10929 10933 10937 10941 10944 10947 10949 10951 10953 10956 10956 10957 10958 10959 10961 10961 10960 10959 10959 10961 10963 10967 10970 10972 10975 10978
10876 10877 10878 10880 10882 10883 10882 10875 10881 10888 10891 10892 10893 10896 10898 10900 10902 10904 10905 10908 10911 10915 10918 10921 10926 10929 10933 10938 10941 10943 10945 10947 10949 10953 10954 10955 10956 10957 10958 10957 10955 10953 10954 10956 10959 10961 10964 10967 10971
10863 10863 10864 10867 10869 10870 10870 10861 10872 10876 10881 10883 10883 10886 10889 10891 10893 10895 10896 10899 10901 10905 10909 10913 10916 10920 10924 10929 10932 10934 10936 10940 10943 10947 10948 10950 10951 10951 10952 10952 10952 10950 10948 10947 10946 10947 10951 10956 10959
10849 10849 10850 10852 10855 10857 10857 10846 10861 10863 10867 10871 10873 10874 10876 10880 10883 10884 10887 10889 10891 10895 10897 10901 10907 10912 10916 10920 10922 10926 10930 10933 10935 10938 10940 10942 10944 10946 10948 10949 10949 10947 10943 10941 10939 10938 10941 10944 10949